GLD1287 SBRJ-SBJD

Flight info

Callsign GLD1287
Flight time 1h 1m
Altitude 21000
Route EVKO2C XOKIX CDT UMBAD DCT KEVUN DCT DORLU DCGENKO DCT AKTAG DCT JD011 R18Z
Aircraft C25C/M-SDFGIRY/S

Departure

Time 2026-04-30 20:00
Airport Santos Dumont Airport (SBRJ)

Arrival

Time 2026-04-30 21:01
Airport Comte. Rolim Adolfo Amaro–Jundiaí State Airport (SBJD)
Time Latitude Longitude Altitude Speed Heading
2026-04-30 19:43 -22.90875 -43.16686 26 ft 0 kts 358°
2026-04-30 19:53 -22.90869 -43.16683 27 ft 3 kts 50°
2026-04-30 19:53 -22.90890 -43.16653 26 ft 4 kts 86°
2026-04-30 19:53 -22.90889 -43.16622 26 ft 9 kts 85°
2026-04-30 19:53 -22.90861 -43.16549 25 ft 9 kts 355°
2026-04-30 19:54 -22.90814 -43.16544 25 ft 12 kts 16°
2026-04-30 19:54 -22.90709 -43.16547 27 ft 18 kts 353°
2026-04-30 19:54 -22.90595 -43.16550 27 ft 12 kts 355°
2026-04-30 19:54 -22.90521 -43.16556 25 ft 8 kts
2026-04-30 19:55 -22.90499 -43.16525 27 ft 0 kts 88°
2026-04-30 19:57 -22.90499 -43.16524 27 ft 1 kts 88°
2026-04-30 19:57 -22.90496 -43.16474 25 ft 11 kts 84°
2026-04-30 19:57 -22.90486 -43.16375 21 ft 7 kts 84°
2026-04-30 19:58 -22.90483 -43.16338 21 ft 0 kts 89°
2026-04-30 19:58 -22.90490 -43.16329 22 ft 4 kts 161°
2026-04-30 19:58 -22.90518 -43.16318 36 ft 0 kts 175°
2026-04-30 19:59 -22.91158 -43.16274 23 ft 105 kts 176°
2026-04-30 20:00 -22.91986 -43.16232 348 ft 128 kts 177°
2026-04-30 20:00 -22.92887 -43.16208 997 ft 128 kts 176°
2026-04-30 20:00 -22.93711 -43.15960 1685 ft 126 kts 136°
2026-04-30 20:00 -22.93992 -43.15062 2337 ft 131 kts 99°
2026-04-30 20:01 -22.95142 -43.13468 3492 ft 143 kts 128°
2026-04-30 20:01 -22.95860 -43.12711 4118 ft 146 kts 141°
2026-04-30 20:01 -22.96642 -43.11995 4744 ft 148 kts 137°
2026-04-30 20:02 -22.98211 -43.10512 6009 ft 150 kts 141°
2026-04-30 20:02 -22.99046 -43.09855 6620 ft 148 kts 162°
2026-04-30 20:03 -23.01016 -43.10042 7773 ft 146 kts 213°
2026-04-30 20:03 -23.01788 -43.10728 8351 ft 146 kts 222°
2026-04-30 20:03 -23.02602 -43.11403 8928 ft 148 kts 219°
2026-04-30 20:03 -23.03398 -43.12122 9517 ft 150 kts 223°
2026-04-30 20:04 -23.04207 -43.12850 10081 ft 152 kts 221°
2026-04-30 20:04 -23.05024 -43.13583 10606 ft 153 kts 222°
2026-04-30 20:04 -23.05853 -43.14323 11117 ft 155 kts 222°
2026-04-30 20:05 -23.06886 -43.16288 12108 ft 154 kts 260°
2026-04-30 20:05 -23.07125 -43.17423 12606 ft 155 kts 257°
2026-04-30 20:05 -23.07601 -43.19702 13606 ft 155 kts 259°
2026-04-30 20:06 -23.07841 -43.20848 14059 ft 156 kts 260°
2026-04-30 20:06 -23.08076 -43.22001 14478 ft 157 kts 259°
2026-04-30 20:06 -23.08318 -43.23154 14901 ft 157 kts 259°
2026-04-30 20:06 -23.08555 -43.24314 15326 ft 158 kts 259°
2026-04-30 20:07 -23.08799 -43.25477 15748 ft 158 kts 259°
2026-04-30 20:07 -23.09038 -43.26645 16154 ft 159 kts 258°
2026-04-30 20:07 -23.09525 -43.29002 16963 ft 161 kts 258°
2026-04-30 20:08 -23.09774 -43.30191 17373 ft 162 kts 258°
2026-04-30 20:08 -23.10018 -43.31385 17783 ft 163 kts 258°
2026-04-30 20:08 -23.10269 -43.32585 18187 ft 163 kts 258°
2026-04-30 20:08 -23.10516 -43.33796 18557 ft 164 kts 258°
2026-04-30 20:09 -23.10769 -43.35009 18898 ft 165 kts 258°
2026-04-30 20:09 -23.11018 -43.36227 19250 ft 165 kts 258°
2026-04-30 20:09 -23.11522 -43.38675 19956 ft 167 kts 258°
2026-04-30 20:10 -23.12029 -43.41138 20673 ft 168 kts 258°
2026-04-30 20:10 -23.12288 -43.42380 21008 ft 171 kts 259°
2026-04-30 20:10 -23.12558 -43.43710 21034 ft 190 kts 259°
2026-04-30 20:11 -23.13181 -43.46740 21050 ft 219 kts 258°
2026-04-30 20:11 -23.13522 -43.48389 21050 ft 228 kts 258°
2026-04-30 20:11 -23.13872 -43.50099 21053 ft 235 kts 258°
2026-04-30 20:12 -23.14640 -43.53638 21057 ft 245 kts 257°
2026-04-30 20:12 -23.15043 -43.55426 21058 ft 249 kts 257°
2026-04-30 20:12 -23.15454 -43.57259 21062 ft 251 kts 257°
2026-04-30 20:13 -23.15871 -43.59109 21074 ft 253 kts 257°
2026-04-30 20:13 -23.16293 -43.60970 21075 ft 255 kts 257°
2026-04-30 20:13 -23.16717 -43.62844 21085 ft 256 kts 257°
2026-04-30 20:13 -23.17140 -43.64725 21083 ft 256 kts 257°
2026-04-30 20:14 -23.17566 -43.66608 21085 ft 257 kts 257°
2026-04-30 20:14 -23.17990 -43.68494 21084 ft 257 kts 257°
2026-04-30 20:14 -23.18418 -43.70384 21089 ft 258 kts 257°
2026-04-30 20:14 -23.18842 -43.72276 21085 ft 258 kts 257°
2026-04-30 20:15 -23.19270 -43.74169 21087 ft 258 kts 257°
2026-04-30 20:15 -23.19695 -43.76064 21084 ft 258 kts 257°
2026-04-30 20:15 -23.20123 -43.77960 21085 ft 258 kts 257°
2026-04-30 20:15 -23.20548 -43.79858 21086 ft 259 kts 257°
2026-04-30 20:16 -23.20975 -43.81755 21087 ft 259 kts 257°
2026-04-30 20:16 -23.21401 -43.83657 21079 ft 259 kts 257°
2026-04-30 20:16 -23.21828 -43.85560 21079 ft 259 kts 257°
2026-04-30 20:16 -23.22256 -43.87464 21079 ft 259 kts 257°
2026-04-30 20:17 -23.22681 -43.89367 21080 ft 259 kts 257°
2026-04-30 20:17 -23.23108 -43.91270 21078 ft 259 kts 257°
2026-04-30 20:17 -23.23532 -43.93173 21079 ft 259 kts 257°
2026-04-30 20:17 -23.23960 -43.95078 21084 ft 259 kts 257°
2026-04-30 20:18 -23.24384 -43.96983 21084 ft 259 kts 257°
2026-04-30 20:18 -23.24811 -43.98887 21082 ft 259 kts 257°
2026-04-30 20:18 -23.25235 -44.00794 21084 ft 259 kts 257°
2026-04-30 20:18 -23.25661 -44.02699 21083 ft 259 kts 257°
2026-04-30 20:19 -23.26085 -44.04604 21085 ft 259 kts 257°
2026-04-30 20:19 -23.26366 -44.05866 21083 ft 259 kts 257°
2026-04-30 20:19 -23.26935 -44.08414 21086 ft 259 kts 257°
2026-04-30 20:19 -23.27359 -44.10322 21083 ft 259 kts 257°
2026-04-30 20:20 -23.27783 -44.12227 21085 ft 259 kts 257°
2026-04-30 20:20 -23.28206 -44.14133 21085 ft 259 kts 257°
2026-04-30 20:20 -23.28633 -44.16037 21086 ft 259 kts 257°
2026-04-30 20:20 -23.29067 -44.17940 21088 ft 259 kts 257°
2026-04-30 20:21 -23.29496 -44.19844 21088 ft 259 kts 257°
2026-04-30 20:21 -23.29926 -44.21744 21087 ft 259 kts 257°
2026-04-30 20:21 -23.30349 -44.23625 21086 ft 259 kts 257°
2026-04-30 20:21 -23.30779 -44.25529 21087 ft 259 kts 257°
2026-04-30 20:22 -23.31208 -44.27432 21086 ft 259 kts 257°
2026-04-30 20:22 -23.31636 -44.29337 21086 ft 259 kts 257°
2026-04-30 20:22 -23.32065 -44.31241 21087 ft 259 kts 257°
2026-04-30 20:22 -23.32493 -44.33146 21090 ft 259 kts 257°
2026-04-30 20:23 -23.32922 -44.35050 21089 ft 259 kts 257°
2026-04-30 20:23 -23.33348 -44.36956 21090 ft 259 kts 257°
2026-04-30 20:23 -23.33777 -44.38860 21090 ft 259 kts 257°
2026-04-30 20:23 -23.34203 -44.40765 21090 ft 259 kts 257°
2026-04-30 20:24 -23.34632 -44.42671 21089 ft 259 kts 257°
2026-04-30 20:24 -23.35058 -44.44577 21089 ft 259 kts 257°
2026-04-30 20:24 -23.35486 -44.46485 21093 ft 259 kts 257°
2026-04-30 20:24 -23.35912 -44.48392 21093 ft 259 kts 257°
2026-04-30 20:25 -23.36765 -44.52207 21092 ft 259 kts 257°
2026-04-30 20:25 -23.37191 -44.54115 21094 ft 259 kts 257°
2026-04-30 20:26 -23.38042 -44.57931 21094 ft 260 kts 257°
2026-04-30 20:26 -23.38893 -44.61748 21094 ft 259 kts 257°
2026-04-30 20:26 -23.39319 -44.63655 21096 ft 259 kts 257°
2026-04-30 20:27 -23.40168 -44.67472 21098 ft 259 kts 257°
2026-04-30 20:27 -23.41016 -44.71289 21099 ft 259 kts 257°
2026-04-30 20:28 -23.41863 -44.75108 21099 ft 259 kts 257°
2026-04-30 20:28 -23.42710 -44.78927 21098 ft 259 kts 257°
2026-04-30 20:29 -23.43555 -44.82745 21103 ft 259 kts 257°
2026-04-30 20:30 -23.44823 -44.88474 21104 ft 259 kts 257°
2026-04-30 20:30 -23.45960 -44.94223 21103 ft 258 kts 268°
2026-04-30 20:31 -23.44790 -44.99886 21104 ft 259 kts 287°
2026-04-30 20:32 -23.43032 -45.05461 21111 ft 260 kts 287°
2026-04-30 20:32 -23.41848 -45.09183 21110 ft 261 kts 287°
2026-04-30 20:33 -23.41254 -45.11048 21110 ft 261 kts 288°
2026-04-30 20:33 -23.40064 -45.14782 21114 ft 261 kts 288°
2026-04-30 20:33 -23.39470 -45.16648 21112 ft 261 kts 287°
2026-04-30 20:34 -23.38279 -45.20381 21111 ft 261 kts 288°
2026-04-30 20:34 -23.37088 -45.24112 21113 ft 261 kts 287°
2026-04-30 20:35 -23.36492 -45.25978 21112 ft 261 kts 288°
2026-04-30 20:35 -23.35894 -45.27846 21114 ft 261 kts 288°
2026-04-30 20:35 -23.34706 -45.31585 21113 ft 261 kts 286°
2026-04-30 20:36 -23.34311 -45.33499 21111 ft 259 kts 280°
2026-04-30 20:36 -23.33921 -45.35417 21107 ft 260 kts 282°
2026-04-30 20:36 -23.33105 -45.39261 21104 ft 261 kts 282°
2026-04-30 20:37 -23.32707 -45.41189 21100 ft 261 kts 281°
2026-04-30 20:37 -23.32307 -45.43111 21100 ft 261 kts 282°
2026-04-30 20:37 -23.31906 -45.45037 21101 ft 261 kts 281°
2026-04-30 20:37 -23.31505 -45.46965 21097 ft 261 kts 282°
2026-04-30 20:38 -23.31101 -45.48894 21098 ft 261 kts 282°
2026-04-30 20:38 -23.30700 -45.50821 21098 ft 261 kts 282°
2026-04-30 20:38 -23.30299 -45.52745 21099 ft 261 kts 282°
2026-04-30 20:39 -23.29495 -45.56589 21098 ft 261 kts 282°
2026-04-30 20:39 -23.29094 -45.58510 21096 ft 260 kts 282°
2026-04-30 20:39 -23.28692 -45.60429 21119 ft 260 kts 282°
2026-04-30 20:40 -23.27894 -45.64241 21124 ft 260 kts 282°
2026-04-30 20:40 -23.27491 -45.66156 21125 ft 260 kts 282°
2026-04-30 20:40 -23.27090 -45.68075 21126 ft 260 kts 282°
2026-04-30 20:41 -23.26289 -45.71910 21133 ft 259 kts 280°
2026-04-30 20:41 -23.26105 -45.73849 21133 ft 258 kts 274°
2026-04-30 20:41 -23.25936 -45.75791 21136 ft 258 kts 276°
2026-04-30 20:41 -23.25800 -45.77102 21136 ft 258 kts 276°
2026-04-30 20:42 -23.25561 -45.79676 21136 ft 259 kts 275°
2026-04-30 20:42 -23.25385 -45.81625 21136 ft 259 kts 275°
2026-04-30 20:42 -23.25088 -45.84864 21137 ft 259 kts 275°
2026-04-30 20:43 -23.24908 -45.86813 21138 ft 259 kts 275°
2026-04-30 20:43 -23.24729 -45.88762 21136 ft 259 kts 275°
2026-04-30 20:43 -23.24549 -45.90714 21135 ft 259 kts 275°
2026-04-30 20:44 -23.24188 -45.94620 21136 ft 260 kts 275°
2026-04-30 20:44 -23.24006 -45.96574 21137 ft 260 kts 275°
2026-04-30 20:44 -23.23644 -46.00480 21131 ft 260 kts 275°
2026-04-30 20:45 -23.23280 -46.04391 21126 ft 260 kts 275°
2026-04-30 20:45 -23.23098 -46.06345 21125 ft 260 kts 275°
2026-04-30 20:45 -23.22915 -46.08299 21122 ft 260 kts 275°
2026-04-30 20:46 -23.22367 -46.14170 21118 ft 261 kts 275°
2026-04-30 20:46 -23.22181 -46.16130 21114 ft 261 kts 275°
2026-04-30 20:47 -23.21814 -46.20051 21111 ft 261 kts 275°
2026-04-30 20:47 -23.21627 -46.22012 21116 ft 261 kts 276°
2026-04-30 20:48 -23.21258 -46.25929 21119 ft 261 kts 276°
2026-04-30 20:48 -23.21073 -46.27891 21120 ft 261 kts 275°
2026-04-30 20:48 -23.20889 -46.29825 21122 ft 261 kts 276°
2026-04-30 20:48 -23.20703 -46.31785 21126 ft 261 kts 276°
2026-04-30 20:49 -23.20421 -46.33727 21125 ft 260 kts 284°
2026-04-30 20:49 -23.19750 -46.35558 21126 ft 261 kts 294°
2026-04-30 20:49 -23.18977 -46.37343 21122 ft 261 kts 293°
2026-04-30 20:50 -23.17460 -46.40935 21122 ft 262 kts 293°
2026-04-30 20:50 -23.16694 -46.42728 21118 ft 262 kts 293°
2026-04-30 20:50 -23.15926 -46.44526 21117 ft 262 kts 293°
2026-04-30 20:50 -23.15156 -46.46335 20993 ft 267 kts 293°
2026-04-30 20:51 -23.14369 -46.48183 20803 ft 270 kts 293°
2026-04-30 20:51 -23.12776 -46.51916 20367 ft 275 kts 293°
2026-04-30 20:51 -23.11967 -46.53806 20130 ft 277 kts 294°
2026-04-30 20:52 -23.11155 -46.55708 19896 ft 278 kts 294°
2026-04-30 20:52 -23.10335 -46.57625 19596 ft 281 kts 294°
2026-04-30 20:52 -23.08684 -46.61485 19003 ft 282 kts 294°
2026-04-30 20:53 -23.07858 -46.63418 18713 ft 282 kts 294°
2026-04-30 20:53 -23.07029 -46.65353 18327 ft 285 kts 294°
2026-04-30 20:53 -23.06196 -46.67301 17795 ft 283 kts 294°
2026-04-30 20:54 -23.04544 -46.71155 16751 ft 280 kts 294°
2026-04-30 20:54 -23.03715 -46.73089 15977 ft 287 kts 294°
2026-04-30 20:54 -23.02876 -46.75044 15157 ft 285 kts 294°
2026-04-30 20:55 -23.01214 -46.78919 13541 ft 279 kts 294°
2026-04-30 20:55 -23.00641 -46.80902 12664 ft 274 kts 278°
2026-04-30 20:55 -23.00570 -46.82952 11700 ft 271 kts 265°
2026-04-30 20:56 -23.01670 -46.86476 9815 ft 214 kts 239°
2026-04-30 20:56 -23.02533 -46.87699 8779 ft 197 kts 227°
2026-04-30 20:56 -23.04636 -46.89401 6725 ft 183 kts 206°
2026-04-30 20:57 -23.05800 -46.89901 5690 ft 177 kts 197°
2026-04-30 20:57 -23.06819 -46.90592 4658 ft 175 kts 224°
2026-04-30 20:57 -23.07612 -46.91562 3665 ft 165 kts 225°
2026-04-30 20:58 -23.09062 -46.93085 3253 ft 142 kts 223°
2026-04-30 20:58 -23.09651 -46.93803 3424 ft 125 kts 227°
2026-04-30 20:58 -23.10187 -46.94583 3327 ft 129 kts 231°
2026-04-30 20:58 -23.10698 -46.95398 3279 ft 131 kts 231°
2026-04-30 20:59 -23.11745 -46.97027 3111 ft 132 kts 223°
2026-04-30 20:59 -23.12552 -46.97238 3028 ft 123 kts 155°
2026-04-30 21:00 -23.13872 -46.96326 2897 ft 118 kts 171°
2026-04-30 21:00 -23.15316 -46.95667 2955 ft 106 kts 155°
2026-04-30 21:01 -23.16717 -46.95008 2797 ft 109 kts 157°
2026-04-30 21:01 -23.17411 -46.94701 2569 ft 107 kts 157°
2026-04-30 21:01 -23.18083 -46.94388 2512 ft 1 kts 143°
2026-04-30 21:02 -23.18088 -46.94357 2512 ft 7 kts 91°
2026-04-30 21:02 -23.18084 -46.94343 2511 ft 0 kts 60°
2026-04-30 21:02 -23.18080 -46.94336 2510 ft 6 kts 64°
2026-04-30 21:03 -23.18065 -46.94299 2509 ft 1 kts 64°
2026-04-30 21:03 -23.18081 -46.94284 2509 ft 7 kts 179°
2026-04-30 21:03 -23.18133 -46.94261 2517 ft 7 kts 120°
2026-04-30 21:03 -23.18129 -46.94227 2516 ft 5 kts 69°
2026-04-30 21:04 -23.18124 -46.94215 2517 ft 0 kts 69°